FW0062 Weather Reports


time (UTC)temp
C
wind
direction
speed
KPH
gust
KPH
rain 1hr
cm
rain 24hr
cm
rain mn
cm
humidity
%
barometer
mb
20260506045027 18 290 3.2 9.7 0.00 0.74 0.51 39 1014.1
20260506044252 18 302 4.8 9.7 0.00 0.74 0.51 38 1014.4
20260506043741 18 334 3.2 6.4 0.00 0.76 0.51 38 1014.2
20260506043234 18 320 3.2 6.4 0.00 0.76 0.51 38 1014.2
20260506042719 18 255 4.8 6.4 0.00 0.76 0.51 38 1014.1
20260506042430 18 293 3.2 6.4 0.00 0.76 0.51 38 1014.2
20260506041647 18 312 3.2 11.3 0.00 0.79 0.51 38 1014.2
20260506041151 18 312 3.2 11.3 0.00 0.79 0.51 38 1014.1
20260506040631 18 273 4.8 6.4 0.00 0.81 0.51 38 1013.9
20260506040124 18 290 3.2 9.7 0.00 0.84 0.51 38 1013.7
20260506035846 18 326 4.8 9.7 0.00 0.86 0.51 38 1013.6
20260506035108 19 269 3.2 9.7 0.00 0.89 0.51 39 1013.7
20260506035101 19 287 3.2 11.3 0.00 0.89 0.51 39 1013.4
20260506034053 19 320 8.0 11.3 0.00 0.89 0.51 38 1013.1
20260506033543 19 272 3.2 11.3 0.00 0.89 0.51 38 1013.2
20260506033028 19 312 6.4 11.3 0.00 0.89 0.51 37 1013.0
20260506032506 19 240 3.2 11.3 0.00 0.89 0.51 37 1013.1
20260506031957 19 264 1.6 9.7 0.00 0.89 0.51 37 1013.1
20260506031450 19 292 4.8 9.7 0.00 0.89 0.51 37 1013.0
20260506030940 19 306 3.2 6.4 0.00 0.89 0.51 37 1012.9
20260506030437 20 245 1.6 6.4 0.00 0.89 0.51 37 1012.9
20260506025925 20 242 3.2 6.4 0.00 0.89 0.51 36 1012.7
20260506025420 20 273 3.2 9.7 0.00 0.89 0.51 36 1012.6
20260506024909 20 248 3.2 9.7 0.00 0.89 0.51 36 1012.5
20260506024401 20 239 3.2 9.7 0.00 0.89 0.51 36 1012.7
20260506023856 20 248 3.2 9.7 0.00 0.89 0.51 35 1012.3
20260506023346 20 262 3.2 9.7 0.00 0.89 0.51 35 1012.5
20260506022837 20 247 1.6 12.9 0.00 0.89 0.51 35 1012.3
20260506022333 20 252 1.6 12.9 0.00 0.89 0.51 35 1012.3
20260506021811 20 241 4.8 12.9 0.00 0.91 0.51 34 1012.0
20260506021301 20 220 3.2 11.3 0.00 0.91 0.51 34 1012.0
20260506020754 20 257 6.4 12.9 0.00 0.91 0.51 33 1012.0
20260506020248 20 291 1.6 16.1 0.00 0.91 0.51 33 1011.9
20260506020011 21 272 6.4 16.1 0.00 0.94 0.51 32 1011.6
20260506015732 21 329 9.7 11.3 0.00 0.94 0.51 32 1011.8
20260506014724 21 222 4.8 12.9 0.00 0.97 0.51 30 1011.8
20260506014717 21 270 6.4 14.5 0.00 0.99 0.51 30 1011.8
20260506013709 21 276 9.7 16.1 0.00 0.99 0.51 29 1011.4
20260506013149 21 300 9.7 16.1 0.00 1.02 0.51 30 1011.6
20260506012642 21 285 4.8 17.7 0.00 1.04 0.51 29 1011.6
20260506012131 21 248 4.8 17.7 0.00 1.04 0.51 30 1011.4
20260506011623 22 313 6.4 17.7 0.00 1.04 0.51 29 1011.5
20260506011119 22 256 8.0 17.7 0.00 1.04 0.51 30 1011.4
20260506010607 22 262 11.3 17.7 0.00 1.04 0.51 30 1011.3
20260506010058 22 308 6.4 17.7 0.00 1.04 0.51 30 1011.3
20260506005554 22 267 9.7 20.9 0.00 1.04 0.51 31 1011.3
20260506005044 22 294 9.7 22.5 0.00 1.04 0.51 30 1011.3
20260506004535 22 186 12.9 24.1 0.00 1.04 0.51 30 1010.9
20260506004027 23 289 12.9 24.1 0.00 1.04 0.51 29 1011.1
20260506003522 23 288 8.0 24.1 0.00 1.04 0.51 28 1011.1
20260506003011 23 248 6.4 20.9 0.00 1.04 0.51 28 1011.1
20260506002504 24 282 14.5 20.9 0.00 1.04 0.51 28 1010.9
20260506001955 23 214 8.0 20.9 0.00 1.04 0.51 28 1010.9
20260506001451 23 263 12.9 24.1 0.00 1.04 0.51 28 1010.8
20260506000940 23 211 9.7 22.5 0.00 1.04 0.51 28 1011.1
20260506000432 23 278 16.1 20.9 0.00 1.04 0.51 29 1011.1
20260505235916 23 199 9.7 24.1 0.00 1.04 0.51 29 1010.9
20260505235406 23 303 8.0 24.1 0.00 1.04 0.51 28 1010.7
20260505234845 24 321 9.7 17.7 0.00 1.04 0.51 28 1010.6
20260505234336 24 201 3.2 22.5 0.00 1.04 0.51 28 1010.8
20260505234100 24 293 9.7 22.5 0.00 1.04 0.51 27 1010.9
20260505233321 24 256 8.0 17.7 0.00 1.04 0.51 31 1010.6
20260505232818 23 226 6.4 17.7 0.00 1.04 0.51 29 1010.4
20260505232536 23 234 12.9 24.1 0.00 1.04 0.51 32 1010.5
20260505231759 24 280 6.4 24.1 0.00 1.04 0.51 30 1010.5
20260505231250 23 276 8.0 17.7 0.00 1.04 0.51 32 1010.6
20260505230740 23 324 8.0 22.5 0.00 1.04 0.51 32 1010.4
20260505230232 23 272 11.3 22.5 0.00 1.04 0.51 34 1010.4
20260505225724 23 270 4.8 16.1 0.00 1.04 0.51 34 1010.4
20260505225221 23 287 6.4 16.1 0.00 1.04 0.51 32 1010.5
20260505224710 23 221 8.0 17.7 0.00 1.04 0.51 32 1010.6
20260505224433 23 301 3.2 17.7 0.00 1.04 0.51 32 1010.8
20260505223655 23 279 9.7 17.7 0.00 1.04 0.51 32 1010.9
20260505223421 23 318 6.4 17.7 0.00 1.04 0.51 34 1010.9
20260505222637 23 248 8.0 16.1 0.00 1.04 0.51 33 1010.9
20260505222128 23 256 6.4 22.5 0.00 1.04 0.51 34 1011.2
20260505221622 23 287 9.7 22.5 0.00 1.04 0.51 33 1011.2
20260505221113 23 218 4.8 16.1 0.00 1.04 0.51 34 1011.1
20260505220606 23 250 8.0 20.9 0.00 1.04 0.51 33 1011.2
20260505220100 23 222 8.0 20.9 0.00 1.04 0.51 35 1011.2
20260505215822 23 289 4.8 20.9 0.00 1.04 0.51 37 1010.9
20260505215543 23 211 14.5 20.9 0.00 1.04 0.51 35 1011.4
20260505214753 23 251 6.4 16.1 0.00 1.04 0.51 36 1011.5
20260505214007 23 236 4.8 11.3 0.00 1.04 0.51 42 1011.4
20260505213456 22 316 1.6 11.3 0.00 1.04 0.51 41 1011.5
20260505212950 23 246 3.2 11.3 0.00 1.04 0.51 40 1011.7
20260505212439 23 288 6.4 22.5 0.00 1.04 0.51 39 1011.7
20260505211931 23 235 14.5 22.5 0.00 1.04 0.51 40 1011.8
20260505211426 22 223 9.7 20.9 0.00 1.04 0.51 45 1011.8
20260505210905 22 257 14.5 20.9 0.00 1.04 0.51 46 1011.8
20260505210350 22 17 6.4 22.5 0.00 1.04 0.51 46 1011.7
20260505205838 22 330 9.7 22.5 0.00 1.04 0.51 46 1012.0
20260505205330 22 333 8.0 14.5 0.00 1.04 0.51 48 1012.1
20260505204824 22 228 3.2 6.4 0.00 1.04 0.51 51 1012.0
20260505204544 22 216 4.8 12.9 0.00 1.04 0.51 50 1011.8
20260505203804 22 305 4.8 12.9 0.00 1.04 0.51 47 1011.9
20260505203257 22 231 6.4 14.5 0.00 1.04 0.51 49 1011.9
20260505202749 23 319 11.3 14.5 0.00 1.04 0.51 46 1012.1
20260505202242 23 339 4.8 14.5 0.00 1.04 0.51 48 1011.8
20260505201733 23 238 6.4 17.7 0.00 1.04 0.51 48 1012.0
20260505201456 23 257 6.4 17.7 0.00 1.04 0.51 46 1012.1
20260505200718 23 227 6.4 17.7 0.00 1.04 0.51 52 1012.1
20260505200213 22 188 9.7 17.7 0.00 1.04 0.51 53 1012.2
20260505195701 22 191 3.2 16.1 0.00 1.04 0.51 55 1012.1
20260505195423 22 241 4.8 16.1 0.00 1.04 0.51 57 1012.2
20260505194648 22 272 9.7 16.1 0.00 1.04 0.51 55 1012.2
20260505194139 21 218 1.6 14.5 0.00 1.04 0.51 61 1012.5
20260505193628 21 271 3.2 12.9 0.00 1.04 0.51 66 1012.7
20260505193121 21 303 3.2 6.4 0.00 1.04 0.51 67 1012.3
20260505192616 21 306 1.6 9.7 0.00 1.04 0.51 67 1012.3
20260505192106 21 320 3.2 12.9 0.00 1.04 0.51 68 1012.5
20260505191559 20 266 0.0 12.9 0.00 1.04 0.51 68 1012.7
20260505191048 20 180 0.0 9.7 0.00 1.04 0.51 69 1012.7
20260505190543 20 324 3.2 12.9 0.00 1.04 0.51 69 1012.7
20260505190035 20 263 3.2 12.9 0.00 1.04 0.51 69 1012.8
20260505185517 21 296 6.4 12.9 0.00 1.04 0.51 69 1012.5
20260505185006 21 174 4.8 11.3 0.00 1.04 0.51 69 1012.9
20260505184500 20 165 3.2 12.9 0.00 1.04 0.51 69 1013.0
20260505184216 20 202 4.8 12.9 0.00 1.04 0.51 75 1012.9
20260505184052 20 102 1.6 12.9 0.00 1.04 0.51 74 1013.2
20260505182927 20 249 3.2 9.7 0.00 1.04 0.51 75 1013.0
20260505182404 20 225 3.2 9.7 0.00 1.04 0.51 76 1013.2
20260505181855 19 228 3.2 4.8 0.00 1.04 0.51 77 1013.3
20260505181353 19 215 1.6 4.8 0.00 1.04 0.51 80 1013.4
20260505181110 19 205 3.2 6.4 0.00 1.04 0.51 80 1013.5
20260505180333 19 215 1.6 6.4 0.00 1.04 0.51 81 1013.4
20260505175816 18 231 0.0 4.8 0.00 1.04 0.51 81 1013.6
20260505175306 18 124 0.0 3.2 0.00 1.04 0.51 79 1013.6
20260505174756 18 121 0.0 4.8 0.00 1.04 0.51 82 1013.4
20260505174523 18 38 3.2 4.8 0.00 1.04 0.51 86 1013.5
20260505174007 18 190 1.6 4.8 0.00 1.04 0.51 85 1013.6
20260505173856 18 213 0.0 4.8 0.00 1.04 0.51 85 1013.6
20260505172718 18 218 3.2 4.8 0.00 1.04 0.51 86 1013.7
20260505172207 18 92 3.2 4.8 0.00 1.04 0.51 86 1013.9
20260505171701 18 156 0.0 3.2 0.00 1.04 0.51 86 1013.5
20260505171149 18 201 3.2 4.8 0.00 1.04 0.51 86 1013.7
20260505170648 19 235 1.6 4.8 0.00 1.04 0.51 86 1013.5
20260505170137 19 226 1.6 4.8 0.00 1.04 0.51 87 1013.6
20260505165629 19 2 1.6 6.4 0.00 1.04 0.51 88 1013.6
20260505165118 18 270 0.0 6.4 0.00 1.04 0.51 88 1013.5
20260505164843 18 172 0.0 6.4 0.00 1.04 0.51 89 1013.5
20260505164104 18 216 0.0 6.4 0.00 1.04 0.51 89 1013.7
20260505163554 17 223 4.8 6.4 0.00 1.04 0.51 89 1013.6
20260505163056 17 227 1.6 4.8 0.00 1.04 0.51 89 1013.5
20260505162539 17 233 3.2 9.7 0.00 1.04 0.51 89 1013.5
20260505162030 17 225 3.2 9.7 0.00 1.04 0.51 90 1013.6
20260505161525 17 207 3.2 6.4 0.00 1.04 0.51 90 1013.9
20260505161018 16 248 3.2 6.4 0.00 1.04 0.51 90 1013.6
20260505160737 16 285 1.6 4.8 0.00 1.04 0.51 90 1013.9
20260505152911 16 211 1.6 4.8 0.00 1.04 0.51 93 1013.3
20260505152404 16 197 3.2 4.8 0.00 1.04 0.51 93 1013.2
20260505151844 15 209 1.6 4.8 0.00 1.04 0.51 93 1013.3
20260505151335 15 216 0.0 3.2 0.00 1.04 0.51 93 1013.3
20260505150829 15 221 1.6 4.8 0.00 1.04 0.51 93 1013.5
20260505150318 15 220 0.0 4.8 0.00 1.04 0.51 93 1013.4
20260505140142 14 284 1.6 3.2 0.00 1.04 0.51 93 1013.3
20260505124945 14 226 0.0 3.2 0.03 1.04 0.51 92 1012.5
20260505124702 14 236 1.6 3.2 0.03 1.04 0.51 92 1012.3
20260505123925 13 221 0.0 3.2 0.03 1.04 0.51 92 1012.3
20260505123415 13 231 0.0 3.2 0.03 1.04 0.51 92 1012.2
20260505123143 13 211 0.0 3.2 0.05 1.04 0.51 92 1012.1
20260505122417 13 227 1.6 3.2 0.05 1.04 0.51 92 1012.2
20260505122357 13 214 1.6 3.2 0.05 1.04 0.51 92 1012.2
20260505121344 13 237 3.2 4.8 0.05 1.04 0.51 92 1012.3
20260505120836 13 202 1.6 6.4 0.03 1.02 0.48 92 1012.0
20260505120322 13 207 0.0 6.4 0.03 1.02 0.48 92 1011.9
20260505115810 13 205 4.8 6.4 0.05 1.02 0.48 92 1012.2
20260505115305 13 226 0.0 9.7 0.05 1.02 0.48 92 1011.9
20260505114743 13 219 1.6 9.7 0.05 1.02 0.48 92 1012.0
20260505114505 13 234 3.2 9.7 0.05 1.02 0.48 92 1011.7
20260505113729 13 160 4.8 6.4 0.08 1.02 0.48 92 1011.6
20260505113219 13 224 3.2 4.8 0.05 0.99 0.46 92 1012.0
20260505112931 13 217 1.6 9.7 0.05 0.99 0.46 92 1012.3
20260505112154 13 226 1.6 9.7 0.05 0.99 0.46 92 1012.1
20260505112145 13 202 1.6 9.7 0.08 0.99 0.46 92 1012.2
20260505111136 13 162 4.8 9.7 0.10 0.99 0.46 92 1012.1
20260505110631 13 185 1.6 9.7 0.13 0.99 0.46 92 1011.8
20260505110350 13 210 4.8 9.7 0.13 0.99 0.46 92 1012.5
20260505102005 14 134 6.4 12.9 0.08 0.94 0.41 91 1012.9
20260505101457 14 79 9.7 11.3 0.05 0.91 0.38 91 1013.0
20260505101219 14 158 1.6 12.9 0.03 0.89 0.36 92 1013.4
20260505100441 14 170 6.4 17.7 0.03 0.86 0.33 92 1013.5
20260505095935 14 201 4.8 17.7 0.03 0.86 0.33 91 1013.4
20260505095657 14 204 3.2 17.7 0.03 0.86 0.33 91 1013.0
20260505094916 14 304 8.0 20.9 0.03 0.86 0.33 92 1013.2
20260505094408 14 127 6.4 20.9 0.03 0.86 0.33 92 1013.2
20260505093901 14 130 8.0 24.1 0.03 0.86 0.33 92 1012.9
20260505093351 14 162 16.1 22.5 0.05 0.86 0.33 91 1013.0
20260505092844 14 131 8.0 16.1 0.05 0.86 0.33 91 1013.4
20260505092336 14 166 6.4 12.9 0.08 0.86 0.33 90 1013.3
20260505091828 14 132 4.8 17.7 0.10 0.86 0.33 90 1013.4
20260505091312 14 196 4.8 17.7 0.13 0.86 0.33 91 1013.4
20260505090804 14 137 4.8 14.5 0.13 0.84 0.30 90 1013.4
20260505090252 14 131 9.7 14.5 0.13 0.84 0.30 90 1013.1
20260505085751 14 155 4.8 14.5 0.15 0.84 0.30 90 1013.3
20260505085238 14 143 3.2 14.5 0.15 0.84 0.30 90 1013.6
20260505085004 14 105 4.8 12.9 0.15 0.84 0.30 90 1013.7
20260505084211 14 160 8.0 12.9 0.18 0.84 0.30 90 1013.6
20260505083702 14 92 4.8 12.9 0.18 0.81 0.30 90 1014.1
20260505083156 14 155 8.0 16.1 0.20 0.81 0.28 90 1014.3
20260505082645 14 142 12.9 16.1 0.23 0.81 0.28 89 1014.3
20260505082139 14 160 6.4 14.5 0.23 0.79 0.25 89 1015.0
20260505081632 14 173 8.0 14.5 0.20 0.76 0.23 88 1014.8
20260505081122 14 141 3.2 12.9 0.18 0.74 0.20 87 1014.7
20260505080842 14 180 1.6 12.9 0.18 0.71 0.18 87 1015.5
20260505080720 14 162 3.2 12.9 0.18 0.71 0.18 88 1015.1
20260505075548 14 108 6.4 12.9 0.15 0.69 0.15 86 1015.5
20260505075309 14 217 4.8 12.9 0.18 0.69 0.15 87 1015.6
20260505074531 14 193 4.8 16.1 0.18 0.66 0.15 86 1015.5
20260505074024 15 115 6.4 16.1 0.18 0.66 0.13 86 1015.3
20260505073517 15 150 6.4 9.7 0.15 0.61 0.10 85 1015.8
20260505073010 15 139 3.2 6.4 0.15 0.61 0.08 84 1015.8
20260505072458 15 132 3.2 6.4 0.15 0.58 0.05 83 1015.8
20260505071952 15 177 1.6 6.4 0.15 0.56 0.03 83 1015.8
20260505071716 15 156 1.6 6.4 0.18 0.56 0.03 82 1015.6
20260505070936 15 216 1.6 6.4 0.18 0.56 0.03 82 1015.6
20260505070658 15 122 1.6 6.4 0.15 0.53 0.00 81 1015.5
20260505065919 15 151 3.2 4.8 0.15 0.53 0.53 81 1015.6
20260505065644 15 138 1.6 3.2 0.15 0.53 0.53 80 1015.7
20260505064904 15 142 1.6 1.6 0.15 0.51 0.51 80 1015.7
20260505064629 15 142 0.0 0.0 0.13 0.48 0.48 79 1015.6
20260505064154 15 140 0.0 1.6 0.13 0.48 0.48 79 1015.8
20260505063340 15 63 0.0 1.6 0.13 0.46 0.46 78 1015.5
20260505063102 15 249 0.0 0.0 0.10 0.43 0.43 78 1015.6
20260505062323 15 277 0.0 1.6 0.10 0.43 0.43 77 1015.6
20260505061816 15 253 0.0 1.6 0.08 0.41 0.41 76 1015.7
20260505061307 15 199 0.0 1.6 0.08 0.38 0.38 76 1015.7
20260505060801 15 248 0.0 1.6 0.08 0.38 0.38 75 1015.6
20260505060250 15 244 0.0 1.6 0.08 0.38 0.38 75 1015.8
20260505055743 15 292 0.0 3.2 0.08 0.38 0.38 74 1015.7
20260505055236 15 232 0.0 6.4 0.08 0.38 0.38 74 1015.4
20260505054730 15 209 1.6 6.4 0.05 0.36 0.36 73 1015.1
20260505054724 15 214 1.6 9.7 0.08 0.36 0.36 72 1015.4
20260505053710 15 193 3.2 9.7 0.08 0.36 0.36 71 1015.5
20260505053204 15 157 3.2 9.7 0.05 0.33 0.33 71 1015.4
20260505052654 15 143 3.2 11.3 0.05 0.33 0.33 70 1015.6
20260505052146 15 181 3.2 11.3 0.05 0.33 0.33 70 1015.5
20260505051641 14 152 3.2 6.4 0.08 0.33 0.33 70 1015.3
20260505051130 14 162 1.6 3.2 0.05 0.30 0.30 69 1015.3
20260505050853 14 103 1.6 3.2 0.08 0.30 0.30 68 1015.3
20260505050115 14 149 0.0 4.8 0.10 0.30 0.30 68 1015.4